Location: Alafon
(8.4500°N, 4.2333°E)
Time: 22:27:51
(UTC+00:00)

Vanguard 2 - Pass Details

Date: 07 August 2021
Orbit: 553 x 2937 km, 32.9° (Epoch: 26 September)

Event Time Altitude Azimuth Distance (km) Brightness Sun altitude
Rises 23:47:46 0° 250° (WSW) 4,830 - -65.4°
Reaches altitude 10° 23:51:49 10° 256° (WSW) 3,425 - -65.4°
Maximum altitude 23:59:13 40° 323° (NW) 1,359 - -65.3°
Drops below altitude 10° 00:04:02 10° 34° (NNE) 2,219 - -65.1°
Sets 00:06:10 0° 42° (NE) 2,975 - -65.0°
